Regional Weather Roundup
Issued by NWS Cleveland, OH

Home | Current Version | Previous Version | Graphics & Text | Print | Product List | Glossary On
Versions: 1 2 3 4 5 6 7 8 9 10 11 12 13 14 15 16 17 18 19 20 21 22 23 24 25 26 27 28 29 30 31 32 33 34 35 36 37 38 39 40 41 42 43 44 45 46 47 48 49 50
000
ASUS41 KCLE 272302
RWRCLE
OHIO REGIONAL WEATHER ROUNDUP
NATIONAL WEATHER SERVICE CLEVELAND, OH
600 PM EST SAT DEC 27 2014

NOTE: "FAIR" INDICATES FEW OR NO CLOUDS BELOW 12,000 FEET WITH NO
SIGNIFICANT WEATHER AND/OR OBSTRUCTIONS TO VISIBILITY.

OHZ001>008-015>018-024>027-034-035-043-044-280000-
   NORTHWEST OHIO

CITY           SKY/WX    TMP DP  RH WIND       PRES   REMARKS
DEFIANCE       CLOUDY    48  45  89 SW12G18   30.03R
FINDLAY        CLOUDY    48  45  89 SW15      30.03R
TOLEDO EXPRESS CLOUDY    47  44  90 SW13G22   30.01R
TOLEDO EXEC    CLOUDY    48  44  86 SW16G23   30.02R
LIMA           CLOUDY    49  44  83 SW13      30.05R
$$

OHZ009>014-019>023-028>033-038-089-280000-
   NORTHEAST OHIO

CITY           SKY/WX    TMP DP  RH WIND       PRES   REMARKS
CLE-HOPKINS    MOCLDY    52  39  61 SW14G22   30.04R
CLE-LAKEFRONT  CLOUDY    54  38  54 S15       30.01R
CUY CO. ARPT   CLOUDY    55  39  54 SW12G21   30.03R
LORAIN-ELYRIA  CLOUDY    50  42  74 SW16      30.03S
ASHTABULA      CLOUDY    53  31  42 SW16G23   30.02R
AKRON-CANTON   CLOUDY    51  34  52 SW13      30.07R
WOOSTER        CLOUDY    50  38  63 SW13      30.05R
MANSFIELD      CLOUDY    49  42  77 S15       30.04F
YOUNGSTOWN     CLOUDY    53  28  38 SW14G23   30.04S
$$

OHZ042-051>053-060>062-070>072-077>081-280000-
  SOUTHWEST OHIO

CITY           SKY/WX    TMP DP  RH WIND       PRES   REMARKS
CINC-COVINGTON RAIN      48  44  86 S5        30.11S FOG
CINC-LUNKEN    LGT RAIN  48  48 100 SW7       30.13R FOG
HAMILTON       LGT RAIN  48  47  96 SW3       30.12R FOG
DAYTON         LGT RAIN  47  46  97 SW12      30.09R FOG
WRIGHT-PAT AFB LGT RAIN  46  46 100 SW6       30.09R FOG
DAYTON GENERAL LGT RAIN  47  46  97 SW9       30.10R FOG
WILMINGTON     LGT RAIN  48  45  89 SW9       30.08S
$$

OHZ036-037-039>041-045>050-054>059-063>069-073>076-082>088-280000-
  CENTRAL AND SOUTHEAST OHIO

CITY           SKY/WX    TMP DP  RH WIND       PRES   REMARKS
COLUMBUS       LGT RAIN  50  41  71 SW8       30.09S
OSU AIRPORT    CLOUDY    50  42  74 SW9G20    30.08F
BOLTON FIELD   CLOUDY    48  45  87 SW8       30.09S
RICKENBACK AFB LGT RAIN  50  41  72 W7        30.09R
NEWARK         CLOUDY    51  38  60 SW3       30.08R
MARION         CLOUDY    49  43  80 SW13G21   30.06R
LANCASTER      CLOUDY    53  40  61 SW3       30.09S
ZANESVILLE     CLOUDY    53  31  42 SW5       30.08S
NEW PHILLY     CLOUDY    54  33  45 SW5       30.08S
$$



USA.gov is the U.S. government's official web portal to all federal, state and local government web resources and services.